www.pogodaiklimat.ru

Погода и климат >> Архив погоды >> Аргентина >> La Plata


ПОГОДА в La Plata

  • Прогноз погоды в La Plata
  • Монитор погоды в La Plata
  • Климат города

АРХИВ ПОГОДЫ в La Plata

Время (UTC), дата Ветер
(напр.,м/с)
 
Видим.   Явления Облачность Т
(С)
Тd
(С)
f
(%)
Тe
(С)
Тes
(С)
Комфортность P
(гПа)
Po
(гПа)
Тmin
(С)
Tmax
(С)
R
(мм)
R24
(мм)
S
(см)
03 15.10 СЗ 2 10 км ясно +16.0 +11.0 72 +16 +16 1020.2 1017.6
06 15.10 СЗ 2 10 км ясно +12.2 +9.0 81 +12 +12 1020.6 1017.8
09 15.10 З 1 10 км ясно +9.8 +8.8 93 +9 +9 1021.3 1018.5
12 15.10 З 2 10 км ясно +18.5 +10.6 60 +20 +26 1022.7 1020.0 +9.2 +18.8
15 15.10 СЗ 3 10 км ясно +23.5 +10.0 42 +25 +41 комфорт 1021.8 1019.2
18 15.10 С 4 10 км ясно +23.7 +12.3 49 +26 +36 жарко 1020.2 1017.6
21 15.10 С 1 10 км ясно +22.8 +7.7 38 +24 +26 комфорт 1018.8 1016.0
00 16.10 В 1 10 км ясно +15.4 +11.5 78 +16 +16 1019.7 1016.9 +15.4 +24.5
03 16.10 СВ 3 10 км ясно +15.8 +12.0 78 +15 +15 1019.7 1017.0
06 16.10 СВ 2 10 км ясно +15.0 +12.7 86 +15 +15 1018.7 1016.0
09 16.10 СВ 3 10 км ясно +15.0 +11.9 82 +14 +14 1018.1 1015.4
12 16.10 С 6 10 км ясно +19.2 +12.5 65 +20 +23 1018.4 1015.7 +14.4 +19.2
15 16.10 СВ 5 10 км 1/0
[Ci]
+22.2 +11.4 50 +24 +33 комфорт 1016.6 1013.8
18 16.10 СВ 4 10 км 1/0
[Ci]
+25.3 +11.8 43 +27 +36 жарко 1013.2 1010.5
21 16.10 СВ 3 10 км 5/0
[Ac As Ci]
+24.0 +14.7 56 +27 +28 жарко 1011.3 1008.6
00 17.10 СВ 2 10 км 8/0
[Ac As]
+22.7 +17.1 71 +28 +28 душно 1011.5 1008.8 +19.2 +25.5
03 17.10 СВ 2 10 км {гроза} 3/0
[Ac As]
+20.2 +17.3 83 +24 +24 комфорт 1011.7 1009.0
06 17.10 СВ 2 10 км {гроза} 3/0
[Cs]
+19.7 +17.8 89 +23 +23 комфорт 1011.2 1008.5 0.0
09 17.10 штиль 0 10 км 4/0
[Cs]
+17.7 +16.9 95 +18 +18 1012.5 1009.8
12 17.10 СВ 5 10 км 8/0
[Cs]
+19.8 +18.0 89 +22 +26 комфорт 1013.9 1011.2 +16.2 +23.0 0.0
15 17.10 СВ 3 10 км 10/0
[Ac As Cs]
+22.2 +18.9 82 +28 +36 душно 1013.0 1010.2
18 17.10 С 3 10 км 10/0
[Ac As Cs]
+22.0 +18.7 82 +27 +34 душно 1011.3 1008.6
21 17.10 СЗ 2 10 км 8/0
[Ac As Cs]
+21.4 +18.7 85 +26 +27 душно 1009.9 1007.2
00 18.10 штиль 0 10 км ясно +18.2 +17.2 94 +19 +19 1012.3 1009.6 +18.2 +25.0
03 18.10 штиль 0 10 км ясно +18.1 +17.5 96 +18 +18 1012.6 1009.8
06 18.10 В 1 900 м туман 3/0
[Cs]
+14.6 +14.6 100 +15 +15 1010.6 1007.8
09 18.10 СВ 2 100 м туман ?/? +17.2 +17.2 100 +17 +17 1010.6 1007.8
12 18.10 СВ 2 8000 м в посл. час туман туман 10/6 360 м
[St Cs]
+18.3 +18.3 100 +20 +22 1009.1 1006.4 +13.8 +19.0
15 18.10 В 2 8000 м дымка 10/8 150 м
[St Ac As]
+19.4 +18.0 92 +22 +23 комфорт 1009.1 1006.4
18 18.10 В 7 10 км 8/4 450 м
[Cu hum Cs]
+22.8 +18.9 79 +29 +31 очень
душно
1005.7 1003.0
21 18.10 СВ 3 10 км 10/0
[Ac As Cs]
+21.0 +19.0 88 +26 +27 душно 1003.4 1000.6
00 19.10 ЮЗ 11 800 м гроза, ливневой дождь 10/5 1350 м
[Cb cap As op]
+15.6 +14.7 94 +13 +13 1010.3 1007.6 +15.6 +23.5 0.0
03 19.10 Ю 3 10 км {гроза} 10/0 1350 м
[As op]
+15.0 +13.9 93 +14 +14 1007.3 1004.6
06 19.10 ЮЗ 6 10 км в посл. час морось {гроза} 10/6 210 м
[St As op]
+15.2 +14.2 94 +13 +13 1011.9 1009.2 8
09 19.10 ЮЗ 4 10 км 6/0
[Ac As]
+10.7 +9.1 90 +8 +8 1014.2 1011.4
12 19.10 Ю 4 10 км 4/1 360 м
[Cu hum Ci fib]
+12.9 +8.8 76 +11 +15 1017.3 1014.5 +10.4 +15.6 8
15 19.10 Ю 4 10 км ясно +16.6 +6.8 52 +16 +28 опасность
простуды
1019.1 1016.4
18 19.10 Ю 3 10 км ясно +18.3 +5.8 44 +19 +30 1018.3 1015.6
21 19.10 Ю 2 10 км 1/0
[Ci fib]
+17.7 +6.0 46 +18 +20 1017.7 1014.9
00 20.10 В 2 10 км ясно +11.4 +8.6 83 +10 +10 1017.9 1015.2 +11.4 +19.3
03 20.10 В 2 10 км 1/0
[Ci fib]
+10.2 +9.2 94 +9 +9 1017.5 1014.6
06 20.10 СВ 4 10 км 4/0
[Cs]
+12.6 +9.5 81 +11 +11 1016.5 1013.7
09 20.10 СВ 3 10 км 5/0
[Ac As Cs]
+11.7 +7.6 76 +10 +10 1016.2 1013.4
12 20.10 СВ 5 10 км 4/0
[Ac trans Cc]
+15.2 +9.7 70 +14 +17 1015.4 1012.6 +10.2 +15.2
15 20.10 СВ 5 10 км 4/1 1050 м
[Cu hum Ac cast Ci fib]
+19.0 +11.6 62 +20 +26 1013.4 1010.6
18 20.10 С 6 10 км 6/1 1050 м
[Cu hum Ac As Cc]
+21.8 +13.4 59 +25 +29 комфорт 1010.5 1007.8
21 20.10 С 1 10 км 10/0
[Ac As Cs]
+21.5 +13.6 61 +24 +25 комфорт 1010.1 1007.4
00 21.10 ЮВ 2 10 км гроза без осадков 9/1 1200 м
[Cb cap Ac As Cs]
+17.5 +14.9 85 +18 +18 1010.7 1008.0 +15.2 +22.7
03 21.10 штиль 0 10 км {гроза} 4/0
[Ac As]
+16.2 +14.8 91 +16 +16 1011.4 1008.6
06 21.10 штиль 0 10 км {гроза} 5/0
[Ac und Cs]
+14.1 +13.6 97 +14 +14 1010.4 1007.7
09 21.10 Ю 7 10 км 10/4 150 м
[St Ac As]
+13.6 +12.3 92 +11 +11 1012.9 1010.2
12 21.10 Ю 10 10 км 9/9 150 м
[St]
+12.8 +10.3 85 +9 +9 1015.8 1013.0 +12.8 +19.5
15 21.10 Ю 8 10 км 6/6 600 м
[Sc]
+16.3 +8.6 60 +15 +16 1017.6 1014.8
18 21.10 Ю 7 10 км 6/6 750 м
[Cu med, cong]
+18.0 +9.1 56 +17 +19 1018.4 1015.6
21 21.10 Ю 6 10 км 1/1 750 м
[Cu med, cong]
+16.2 +7.7 57 +15 +16 1019.0 1016.2

 

Местоположение метеостанции La Plata (Аргентина): широта -34.96 долгота -57.90 высота над уровнем моря 19 м.

В архиве по умолчанию представлена погода в La Plata за последнюю неделю. Архивные данные за месяц целиком и за предыдущие месяцы, начиная с января 2011 года, Вы можете получить, выбрав интересующий диапазон дат из раскрывающегося списка и нажав кнопку "Ввод!".

Внимание! Время в таблицах - всемирное. Для получения местного времени необходимо прибавить поправку, которая в La Plata равна -3 ч.

Смотрите также архив погоды в соседних городах и на ближайших метеорологических станциях:

Погода в Colonia (Уругвай) (57 км)
Погода в Ezeiza (Аргентина) (60 км)
Погода в Buenos Aires Aeropuerto (Аргентина) (64 км)
Погода в Buenos Aires (Аргентина) (68 км)
Погода в Melilla (Уругвай) (152 км)
Погода в Dolores (Аргентина) (152 км)
Погода в Prado (Уругвай) (156 км)
Погода в Las Flores (Аргентина) (164 км)
Погода в Carrasco (Уругвай) (174 км)
Погода в Florida (Уругвай) (183 км)

Пояснения к столбцам:

Ветер - указаны скорость ветра в м/с - средняя за 10 мин, порывы в срок и между сроками (в фигурных скобках) и направление, откуда дует ветер: С - северный, СВ - северо-восточный, В - восточный, ЮВ - юго-восточный, Ю - южный, ЮЗ - юго-западный, З - западный, СЗ - северо-западный.
Видимость - горизонтальная дальность видимости в метрах или километрах. При видимости от 1 до 10 км при отсутствии осадков обычно наблюдается дымка, при ухудшении видимости до 1 км и менее - туман. В сухую погоду видимость может ухудшаться дымом, пылью или мглою.
Явления - указаны атмосферные явления, наблюдавшиеся в срок или в последний час перед сроком; фигурными скобками обозначены явления, наблюдавшиеся между сроками (за 1-3 часа до срока); квадратными скобками обозначены град или гололедные отложения с указанием их диаметра в мм.
Облачность - указаны через наклонную черту общая и нижняя облачность в баллах и высота нижней границы облаков в метрах; квадратными скобками обозначены формы облаков: Ci - перистые, Cs - перисто-слоистые, Cc - перисто-кучевые, Ac - высококучевые, As - высокослоистые, Sc - слоисто-кучевые, Ns - слоисто-дождевые, Cu - кучевые, Cb - кучево-дождевые. Подробнее классификацию облаков см. в Атласе облаков (PDF).
T - Температура воздуха - температура, измеренная на высоте 2 м над землей.
Td - Температура точки росы - температура, при понижении до которой содержащийся в воздухе водяной пар достигнет насыщения.
f - Относительная влажность воздуха - влажноcть воздуха, измеренная на высоте 2 м над землей.
Te - Эффективная температура - температура, которую ощущает одетый по сезону человек в тени. Характеристика душности погоды. При расчете учитывается влияние влажности воздуха и скорости ветра на теплоощущения человека.
Tes - Эффективная температура на солнце - температура, которую ощущает человек, с поправкой на солнечный нагрев. Характеристика знойности погоды. Зависит от высоты солнца над горизонтом, облачности и скорости ветра. Ночью, в пасмурную погоду, а также при ветре 12 м/с и более поправка равна нулю.
P - Атмосферное давление - приведенное к уровню моря атмосферное давление.
Po - Атмосферное давление - измеренное на уровне метеостанции атмосферное давление.
Tmin - Минимальная температура - минимум температуры воздуха на высоте 2 м над землей.
Tmax - Максимальная температура - максимум температуры воздуха на высоте 2 м над землей.
R - Количество осадков - Количество выпавших осадков за период времени, мм. При наведении курсора мыши на число - период времени, за который выпало указанное количество осадков.
R24 - Количество осадков - Количество выпавших осадков за 24 часа, мм.
S - Снежный покров - Высота снежного покрова, см. При наведении курсора мыши на число - состояние снежного покрова и степень покрытия местности в баллах.